N063SB EDDH-EGKK

Flight info

Callsign N063SB
Flight time 1h 12m
Altitude 43000
Route WSN5G WSN N125 ITMIZ DCT GALSO Q63 ARREK Y4 TEBRA
Aircraft C25C/M-SDE2E3FGHRWXY/LB1

Departure

Time 2026-04-23 14:46
Airport Hamburg Helmut Schmidt Airport (EDDH)

Arrival

Time 2026-04-23 15:58
Airport London Gatwick Airport (EGKK)
Time Latitude Longitude Altitude Speed Heading
2026-04-23 14:31 53.62698 9.98729 36 ft 0 kts 60°
2026-04-23 14:37 53.62691 9.98709 36 ft 3 kts 60°
2026-04-23 14:37 53.62683 9.98682 36 ft 3 kts 60°
2026-04-23 14:37 53.62682 9.98679 36 ft 0 kts 60°
2026-04-23 14:44 53.62667 9.98696 36 ft 8 kts 226°
2026-04-23 14:44 53.62725 9.98639 36 ft 12 kts 356°
2026-04-23 14:44 53.62782 9.98739 36 ft 14 kts 50°
2026-04-23 14:44 53.62859 9.98893 36 ft 21 kts 50°
2026-04-23 14:45 53.62954 9.99081 37 ft 21 kts 48°
2026-04-23 14:45 53.63048 9.99253 38 ft 19 kts 35°
2026-04-23 14:45 53.63170 9.99326 39 ft 19 kts 12°
2026-04-23 14:45 53.63292 9.99357 40 ft 20 kts 353°
2026-04-23 14:46 53.63584 9.99122 37 ft 87 kts 329°
2026-04-23 14:46 53.64279 9.98506 269 ft 129 kts 325°
2026-04-23 14:46 53.65137 9.97763 767 ft 141 kts 329°
2026-04-23 14:46 53.66058 9.97183 1642 ft 144 kts 340°
2026-04-23 14:47 53.66972 9.96781 2668 ft 134 kts 344°
2026-04-23 14:47 53.67973 9.96414 3220 ft 156 kts 347°
2026-04-23 14:47 53.68973 9.95567 3667 ft 172 kts 308°
2026-04-23 14:47 53.69093 9.93448 4235 ft 215 kts 259°
2026-04-23 14:48 53.68514 9.90772 4856 ft 269 kts 253°
2026-04-23 14:48 53.67789 9.87699 5262 ft 278 kts 252°
2026-04-23 14:48 53.67035 9.84692 5283 ft 283 kts 251°
2026-04-23 14:48 53.66291 9.81797 5282 ft 267 kts 251°
2026-04-23 14:49 53.65541 9.78895 5284 ft 282 kts 251°
2026-04-23 14:49 53.64767 9.75843 5314 ft 273 kts 251°
2026-04-23 14:49 53.64036 9.73015 5310 ft 262 kts 251°
2026-04-23 14:49 53.63315 9.70264 5311 ft 252 kts 251°
2026-04-23 14:50 53.62613 9.67609 5310 ft 245 kts 251°
2026-04-23 14:50 53.61922 9.65022 5310 ft 239 kts 251°
2026-04-23 14:50 53.61259 9.62534 5612 ft 218 kts 251°
2026-04-23 14:50 53.60621 9.60192 6378 ft 235 kts 251°
2026-04-23 14:51 53.59902 9.57465 7148 ft 274 kts 251°
2026-04-23 14:51 53.59088 9.54353 7930 ft 306 kts 251°
2026-04-23 14:51 53.58218 9.50931 8730 ft 333 kts 251°
2026-04-23 14:51 53.57278 9.47226 9560 ft 354 kts 251°
2026-04-23 14:52 53.56319 9.43396 10378 ft 344 kts 251°
2026-04-23 14:52 53.55403 9.39805 11122 ft 324 kts 251°
2026-04-23 14:52 53.54552 9.36466 11864 ft 306 kts 251°
2026-04-23 14:52 53.53723 9.33271 12614 ft 291 kts 251°
2026-04-23 14:53 53.52832 9.30282 13392 ft 287 kts 244°
2026-04-23 14:53 53.51800 9.27348 14185 ft 295 kts 244°
2026-04-23 14:53 53.50723 9.24316 14909 ft 313 kts 242°
2026-04-23 14:53 53.49584 9.21063 15659 ft 333 kts 243°
2026-04-23 14:54 53.48382 9.17612 16448 ft 351 kts 243°
2026-04-23 14:54 53.47128 9.13992 17237 ft 366 kts 241°
2026-04-23 14:54 53.45838 9.10226 18064 ft 378 kts 242°
2026-04-23 14:54 53.44529 9.06321 18860 ft 389 kts 243°
2026-04-23 14:55 53.43163 9.02352 19601 ft 398 kts 240°
2026-04-23 14:55 53.41683 8.98385 20345 ft 405 kts 238°
2026-04-23 14:55 53.40165 8.94372 21113 ft 410 kts 238°
2026-04-23 14:55 53.38633 8.90304 21898 ft 414 kts 239°
2026-04-23 14:56 53.37110 8.86267 22704 ft 418 kts 238°
2026-04-23 14:56 53.35556 8.82137 23536 ft 419 kts 238°
2026-04-23 14:56 53.34010 8.78003 24300 ft 420 kts 239°
2026-04-23 14:56 53.32461 8.73848 25008 ft 421 kts 238°
2026-04-23 14:57 53.30921 8.69673 25747 ft 421 kts 238°
2026-04-23 14:57 53.29403 8.65511 26500 ft 420 kts 238°
2026-04-23 14:57 53.27897 8.61343 27285 ft 418 kts 238°
2026-04-23 14:57 53.26402 8.57177 28074 ft 416 kts 238°
2026-04-23 14:58 53.24926 8.53033 28889 ft 414 kts 238°
2026-04-23 14:58 53.23464 8.48929 29727 ft 410 kts 238°
2026-04-23 14:58 53.22039 8.44897 30549 ft 407 kts 238°
2026-04-23 14:58 53.20614 8.40852 31297 ft 401 kts 238°
2026-04-23 14:59 53.19210 8.36861 32060 ft 396 kts 238°
2026-04-23 14:59 53.17836 8.32925 32837 ft 391 kts 238°
2026-04-23 14:59 53.16490 8.29020 33638 ft 384 kts 238°
2026-04-23 14:59 53.15174 8.25193 34446 ft 377 kts 238°
2026-04-23 15:00 53.13890 8.21446 35160 ft 369 kts 239°
2026-04-23 15:00 53.12695 8.17720 35900 ft 361 kts 242°
2026-04-23 15:00 53.11637 8.14011 36662 ft 350 kts 243°
2026-04-23 15:00 53.10642 8.10390 37438 ft 337 kts 243°
2026-04-23 15:01 53.09701 8.06933 38216 ft 327 kts 243°
2026-04-23 15:01 53.08773 8.03488 38741 ft 326 kts 243°
2026-04-23 15:01 53.07860 8.00056 39226 ft 323 kts 245°
2026-04-23 15:01 53.06944 7.96651 39670 ft 320 kts 243°
2026-04-23 15:02 53.06328 7.94386 39982 ft 318 kts 244°
2026-04-23 15:02 53.05105 7.90006 40595 ft 313 kts 244°
2026-04-23 15:02 53.04179 7.86719 40863 ft 315 kts 244°
2026-04-23 15:02 53.03254 7.83455 41367 ft 309 kts 244°
2026-04-23 15:03 53.02396 7.80217 41854 ft 304 kts 248°
2026-04-23 15:03 53.01614 7.77007 42352 ft 299 kts 248°
2026-04-23 15:03 53.00848 7.73822 42867 ft 293 kts 249°
2026-04-23 15:03 53.00088 7.70713 43278 ft 291 kts 248°
2026-04-23 15:04 52.99313 7.67568 43332 ft 297 kts 248°
2026-04-23 15:04 52.98524 7.64396 43351 ft 307 kts 248°
2026-04-23 15:04 52.97699 7.61059 43369 ft 318 kts 248°
2026-04-23 15:04 52.96858 7.57604 43376 ft 328 kts 248°
2026-04-23 15:05 52.95996 7.54038 43374 ft 339 kts 248°
2026-04-23 15:05 52.95108 7.50353 43379 ft 349 kts 248°
2026-04-23 15:05 52.93274 7.42732 43383 ft 367 kts 248°
2026-04-23 15:06 52.91333 7.34679 43379 ft 385 kts 248°
2026-04-23 15:06 52.89309 7.26287 43390 ft 400 kts 248°
2026-04-23 15:07 52.87211 7.17600 43390 ft 412 kts 248°
2026-04-23 15:07 52.85049 7.08673 43380 ft 423 kts 248°
2026-04-23 15:08 52.82856 6.99525 43397 ft 432 kts 248°
2026-04-23 15:09 52.79534 6.85522 43402 ft 444 kts 248°
2026-04-23 15:09 52.77270 6.75962 43401 ft 450 kts 248°
2026-04-23 15:10 52.75366 6.67931 43398 ft 454 kts 248°
2026-04-23 15:10 52.72652 6.56518 43399 ft 459 kts 248°
2026-04-23 15:11 52.70315 6.46666 43401 ft 463 kts 248°
2026-04-23 15:11 52.68008 6.36812 43408 ft 466 kts 248°
2026-04-23 15:12 52.65670 6.26830 43404 ft 468 kts 248°
2026-04-23 15:12 52.63321 6.16814 43409 ft 470 kts 248°
2026-04-23 15:13 52.61358 6.08459 43408 ft 471 kts 248°
2026-04-23 15:13 52.58987 5.98395 43406 ft 473 kts 247°
2026-04-23 15:14 52.56252 5.86642 43412 ft 474 kts 248°
2026-04-23 15:14 52.53905 5.76517 43422 ft 475 kts 248°
2026-04-23 15:15 52.51546 5.66390 43416 ft 475 kts 248°
2026-04-23 15:15 52.49582 5.57966 43434 ft 476 kts 247°
2026-04-23 15:16 52.47217 5.47824 43432 ft 476 kts 248°
2026-04-23 15:16 52.44465 5.36040 43433 ft 476 kts 248°
2026-04-23 15:17 52.42400 5.27600 43433 ft 476 kts 244°
2026-04-23 15:17 52.39568 5.17884 43425 ft 476 kts 243°
2026-04-23 15:18 52.36595 5.08215 43426 ft 476 kts 242°
2026-04-23 15:18 52.33594 4.98553 43435 ft 476 kts 240°
2026-04-23 15:19 52.30596 4.88913 43429 ft 476 kts 242°
2026-04-23 15:19 52.27612 4.79330 43430 ft 476 kts 242°
2026-04-23 15:20 52.24603 4.69709 43432 ft 476 kts 242°
2026-04-23 15:20 52.21590 4.60080 43422 ft 476 kts 241°
2026-04-23 15:21 52.18578 4.50457 43424 ft 476 kts 241°
2026-04-23 15:21 52.15559 4.40848 43422 ft 477 kts 242°
2026-04-23 15:22 52.12551 4.31305 43433 ft 477 kts 240°
2026-04-23 15:22 52.09523 4.21708 43429 ft 477 kts 241°
2026-04-23 15:23 52.06489 4.12104 43432 ft 477 kts 241°
2026-04-23 15:23 52.03453 4.02521 43445 ft 477 kts 241°
2026-04-23 15:24 52.00413 3.92934 43437 ft 477 kts 241°
2026-04-23 15:24 51.97395 3.83426 43440 ft 477 kts 242°
2026-04-23 15:25 51.94355 3.73851 43447 ft 478 kts 241°
2026-04-23 15:25 51.91312 3.64279 43441 ft 477 kts 240°
2026-04-23 15:26 51.88270 3.54722 43443 ft 478 kts 240°
2026-04-23 15:26 51.85241 3.45240 43443 ft 478 kts 240°
2026-04-23 15:27 51.82186 3.35711 43443 ft 478 kts 240°
2026-04-23 15:27 51.79140 3.26177 43448 ft 477 kts 240°
2026-04-23 15:28 51.76099 3.16654 43443 ft 477 kts 240°
2026-04-23 15:28 51.73069 3.07215 43447 ft 477 kts 240°
2026-04-23 15:29 51.70014 2.97726 43446 ft 477 kts 240°
2026-04-23 15:29 51.67193 2.88055 43447 ft 479 kts 250°
2026-04-23 15:30 51.65779 2.77556 43445 ft 481 kts 259°
2026-04-23 15:30 51.64862 2.66891 43445 ft 481 kts 261°
2026-04-23 15:31 51.64050 2.56195 43443 ft 481 kts 262°
2026-04-23 15:31 51.63248 2.45570 43449 ft 481 kts 261°
2026-04-23 15:32 51.62445 2.34873 43449 ft 481 kts 261°
2026-04-23 15:32 51.61632 2.24186 43447 ft 481 kts 261°
2026-04-23 15:33 51.60808 2.13515 43451 ft 481 kts 261°
2026-04-23 15:33 51.59985 2.02830 43449 ft 481 kts 262°
2026-04-23 15:34 51.59156 1.92228 43443 ft 481 kts 262°
2026-04-23 15:34 51.58314 1.81557 43447 ft 481 kts 261°
2026-04-23 15:35 51.57148 1.71007 43445 ft 479 kts 251°
2026-04-23 15:35 51.54200 1.61499 43442 ft 476 kts 233°
2026-04-23 15:35 51.52077 1.57445 43257 ft 477 kts 224°
2026-04-23 15:36 51.49649 1.53798 42462 ft 492 kts 219°
2026-04-23 15:36 51.47021 1.50277 41710 ft 496 kts 217°
2026-04-23 15:36 51.44281 1.46780 40977 ft 507 kts 216°
2026-04-23 15:36 51.41451 1.43254 39923 ft 524 kts 216°
2026-04-23 15:37 51.38556 1.39678 38871 ft 528 kts 216°
2026-04-23 15:37 51.35627 1.36084 37643 ft 525 kts 215°
2026-04-23 15:37 51.32827 1.32602 36457 ft 494 kts 215°
2026-04-23 15:37 51.30168 1.29223 35384 ft 483 kts 214°
2026-04-23 15:38 51.27583 1.25862 34312 ft 475 kts 214°
2026-04-23 15:38 51.25076 1.22517 33090 ft 464 kts 215°
2026-04-23 15:38 51.22667 1.19239 31904 ft 447 kts 215°
2026-04-23 15:38 51.20354 1.16053 30756 ft 433 kts 215°
2026-04-23 15:39 51.18171 1.13002 29536 ft 412 kts 216°
2026-04-23 15:39 51.16066 1.10046 28337 ft 399 kts 216°
2026-04-23 15:39 51.13967 1.07126 27166 ft 403 kts 216°
2026-04-23 15:39 51.11852 1.04229 26048 ft 393 kts 216°
2026-04-23 15:40 51.09858 1.01509 24971 ft 364 kts 216°
2026-04-23 15:40 51.07989 0.98977 23913 ft 344 kts 216°
2026-04-23 15:40 51.06206 0.96547 22684 ft 333 kts 220°
2026-04-23 15:40 51.05008 0.93410 21520 ft 339 kts 250°
2026-04-23 15:41 51.04910 0.89716 20655 ft 335 kts 275°
2026-04-23 15:41 51.05382 0.85988 19563 ft 358 kts 282°
2026-04-23 15:41 51.05827 0.81971 18481 ft 381 kts 269°
2026-04-23 15:41 51.05364 0.77739 17304 ft 396 kts 257°
2026-04-23 15:42 51.04992 0.73345 16174 ft 397 kts 263°
2026-04-23 15:42 51.04626 0.69213 15114 ft 375 kts 261°
2026-04-23 15:42 51.04249 0.65167 14037 ft 367 kts 261°
2026-04-23 15:42 51.03823 0.61188 12874 ft 364 kts 258°
2026-04-23 15:43 51.03211 0.57237 11754 ft 374 kts 256°
2026-04-23 15:43 51.02601 0.53196 10660 ft 368 kts 256°
2026-04-23 15:43 51.02000 0.49319 9540 ft 360 kts 256°
2026-04-23 15:43 51.01414 0.45476 8401 ft 355 kts 256°
2026-04-23 15:44 51.00856 0.41772 7498 ft 329 kts 256°
2026-04-23 15:44 51.00324 0.38173 7462 ft 333 kts 256°
2026-04-23 15:44 50.99676 0.34695 7459 ft 325 kts 246°
2026-04-23 15:44 50.98730 0.31533 7447 ft 319 kts 242°
2026-04-23 15:45 50.97751 0.28405 7443 ft 315 kts 241°
2026-04-23 15:45 50.96757 0.25336 7421 ft 298 kts 241°
2026-04-23 15:45 50.95915 0.22705 7164 ft 248 kts 240°
2026-04-23 15:45 50.95172 0.20365 6639 ft 237 kts 241°
2026-04-23 15:46 50.94372 0.17871 6119 ft 258 kts 241°
2026-04-23 15:46 50.93573 0.15358 5609 ft 248 kts 242°
2026-04-23 15:46 50.93276 0.12840 5419 ft 228 kts 282°
2026-04-23 15:46 50.93737 0.10463 5405 ft 224 kts 289°
2026-04-23 15:47 50.94230 0.08122 5397 ft 224 kts 291°
2026-04-23 15:47 50.94740 0.05817 5398 ft 223 kts 291°
2026-04-23 15:47 50.95287 0.03415 5402 ft 238 kts 291°
2026-04-23 15:47 50.95845 0.00942 5402 ft 243 kts 290°
2026-04-23 15:48 50.96412 -0.01607 5408 ft 242 kts 291°
2026-04-23 15:48 50.96976 -0.04119 5409 ft 241 kts 291°
2026-04-23 15:48 50.97547 -0.06652 5112 ft 254 kts 290°
2026-04-23 15:48 50.98159 -0.09357 4736 ft 264 kts 291°
2026-04-23 15:49 50.98778 -0.12117 4372 ft 268 kts 291°
2026-04-23 15:49 50.99408 -0.14920 4009 ft 271 kts 290°
2026-04-23 15:49 51.00053 -0.17748 3642 ft 274 kts 291°
2026-04-23 15:49 51.00705 -0.20574 3458 ft 268 kts 291°
2026-04-23 15:50 51.01289 -0.23149 3373 ft 221 kts 290°
2026-04-23 15:50 51.01814 -0.25459 3388 ft 224 kts 290°
2026-04-23 15:50 51.02355 -0.27783 3395 ft 223 kts 291°
2026-04-23 15:50 51.02884 -0.30094 3397 ft 221 kts 291°
2026-04-23 15:51 51.03407 -0.32372 3398 ft 215 kts 291°
2026-04-23 15:51 51.03881 -0.34496 3411 ft 201 kts 291°
2026-04-23 15:51 51.04347 -0.36564 3407 ft 198 kts 290°
2026-04-23 15:51 51.04803 -0.38670 3409 ft 206 kts 286°
2026-04-23 15:52 51.05016 -0.40938 3396 ft 204 kts 276°
2026-04-23 15:52 51.05179 -0.43139 3399 ft 199 kts 276°
2026-04-23 15:52 51.05320 -0.45289 3395 ft 193 kts 278°
2026-04-23 15:52 51.05709 -0.47276 3373 ft 185 kts 312°
2026-04-23 15:53 51.06768 -0.48043 3393 ft 168 kts 11°
2026-04-23 15:53 51.07810 -0.47255 3397 ft 171 kts 40°
2026-04-23 15:53 51.08814 -0.46202 3407 ft 172 kts 41°
2026-04-23 15:53 51.09801 -0.45124 3413 ft 173 kts 39°
2026-04-23 15:54 51.10751 -0.43974 3325 ft 173 kts 47°
2026-04-23 15:54 51.11421 -0.42422 3273 ft 168 kts 66°
2026-04-23 15:54 51.11885 -0.40811 3262 ft 153 kts 73°
2026-04-23 15:54 51.12171 -0.39245 3209 ft 144 kts 79°
2026-04-23 15:55 51.12371 -0.37592 3068 ft 160 kts 83°
2026-04-23 15:55 51.12582 -0.35780 2914 ft 171 kts 80°
2026-04-23 15:55 51.12771 -0.34060 2519 ft 132 kts 81°
2026-04-23 15:55 51.12916 -0.32632 2109 ft 134 kts 82°
2026-04-23 15:56 51.13083 -0.31156 1881 ft 140 kts 79°
2026-04-23 15:56 51.13297 -0.29570 1693 ft 151 kts 77°
2026-04-23 15:56 51.13520 -0.28086 1500 ft 124 kts 74°
2026-04-23 15:56 51.13727 -0.26825 1296 ft 124 kts 75°
2026-04-23 15:57 51.13909 -0.25428 1126 ft 119 kts 78°
2026-04-23 15:57 51.14096 -0.24059 804 ft 144 kts 75°
2026-04-23 15:57 51.14335 -0.22441 650 ft 147 kts 75°
2026-04-23 15:57 51.14516 -0.21109 369 ft 101 kts 75°
2026-04-23 15:58 51.14661 -0.20038 211 ft 98 kts 74°
2026-04-23 15:58 51.14804 -0.19107 202 ft 71 kts 79°
2026-04-23 15:58 51.14896 -0.18603 201 ft 34 kts 55°
2026-04-23 15:58 51.15026 -0.18345 198 ft 17 kts 52°
2026-04-23 15:59 51.15033 -0.18331 198 ft 0 kts 52°
2026-04-23 16:00 51.15129 -0.18184 199 ft 14 kts 352°
2026-04-23 16:00 51.15216 -0.18069 199 ft 32 kts 81°
2026-04-23 16:00 51.15295 -0.17984 203 ft 21 kts 345°
2026-04-23 16:01 51.15316 -0.17992 199 ft 0 kts 348°